Weather in Timimoun

Algeria     29°15′13″N   0°18′22″E
temp.,
°C
wind,
m/s
gust,
m/s
humid.,
%
clouds,
%
prec.,
mm/h
press.,
hPa
HPBL,
m
12 may, wed
wed1201:00+29ne712230 0.0 1014260
04:00+27ne814190 0.0 1013301
07:00+25ene915180 0.0 1014466
10:00+29e1011150 0.0 1015866
13:00+34e77120 0.0 10131627
16:00+36ene76110 0.0 10112312
19:00+34ene79120 0.0 1011478
22:00+31ne813150 0.0 1013271
13 may, thu
thu1301:00+28ne510180 0.0 1013154
04:00+26ene59190 0.0 1012128
07:00+25ene511200 0.0 1013184
10:00+32e79121 0.0 1013818
13:00+36e66833 0.0 10111935
16:00+37e54749 0.0 10082858
19:00+36ene4675 0.0 100898
22:00+31ene59105 0.0 1010108
14 may, fri
fri1401:00+29ene61112100 0.0 1009164
04:00+27e51015100 0.0 1009140
07:00+27e6131663 0.0 1010219
10:00+33ese81011100 0.0 1011728
13:00+38ese648100 0.0 10092899
16:00+39e447100 0.0 10073524
19:00+37ene46886 0.0 100882
22:00+33ene5711100 0.0 100984
15 may, sat
sat1501:00+31e61211100 0.0 1009164
04:00+29e61113100 0.0 1009165
07:00+29e71412100 0.0 1010230
10:00+35ese9127100 0.0 1011964
13:00+40ese865100 0.0 10102854
16:00+41e654100 0.0 10083113
19:00+38ene586100 0.0 1007122
22:00+35e7148100 0.0 1009211
16 may, sun
sun1601:00+33e101711100 0.0 1009450
04:00+31e71313100 0.0 1009253
07:00+30e6121490 0.0 1010246
10:00+36sse799100 0.0 1011985
13:00+42s67699 0.0 10092997
16:00+42sw8106100 0.0 10063613
19:00+40sw6107100 0.0 1006227
22:00+36wsw459100 0.0 100843